Location: Unspecified
(0.0000°N, 0.0000°E)
Time: 13:15:01
(UTC+00:00)

LightSail 2 - Pass Details

Date: 30 March 2020
Orbit: 693 x 726 km, 24.0° (Epoch: 02 April)

Event Time Altitude Azimuth Distance (km) Brightness Sun altitude
Exits shadow 04:39:15 47° 296° (WNW) 910 5.3 -21.2°
Maximum altitude 04:40:10 54° 335° (NNW) 833 5.3 -21.0°
Drops below altitude 10° 04:45:06 10° 52° (NE) 2,143 8.4 -19.8°
Sets 04:47:34 0° 57° (ENE) 3,063 9.5 -19.2°
